Date String (YYYY-MM-DD hh:mm:ss) UTC,Instrument flags,Ambient pressure (hPa),Sample flow (lpm),Bypass flow (lpm),Sample temperature (°C),Ambient temperature (°C),ASC tube jacket temperature (°C),LED temperature (°C),Box temperature (°C),Sample RH (%),Span deviation,Mass concentration (μg/m³),Mass concentration (μg/m³),Mass concentration (μg/m³)
DateTimeUTC,F1_M11,P_M11,Q1_M11,Q2_M11,T1_M11,T2_M11,T3_M11,T4_M11,T5_M11,U1_M11,ZSPAN_M11,X2_M11,X0_M11,X1_M11
2023-03-04 09:00:00,,0819.5,5.01,0.00,22.6,22.5,00.0,31.1,24.4,16.0,-000.8,0010.45,0012.77,0010.14
2023-03-04 09:01:00,,0819.5,4.98,0.00,22.6,22.1,00.0,31.2,24.4,15.2,-000.9,0010.42,0012.76,0010.09
2023-03-04 09:02:00,,0819.5,5.01,0.00,22.5,21.7,00.0,31.2,24.3,14.0,-000.9,0010.26,0012.68,0009.91
2023-03-04 09:03:00,,0819.5,4.99,0.00,22.5,21.5,00.0,31.2,24.3,13.8,-001.0,0009.93,0012.40,0009.59
2023-03-04 09:04:00,,0819.5,5.01,0.00,22.5,21.3,00.0,31.2,24.2,14.8,-000.9,0009.82,0012.29,0009.48
2023-03-04 09:05:00,,0819.5,5.01,0.00,22.5,21.1,00.0,31.2,24.1,14.6,-000.8,0009.87,0012.36,0009.52
2023-03-04 09:06:00,,0819.5,5.00,0.00,22.5,21.0,00.0,31.2,24.1,14.5,-000.6,0009.78,0012.36,0009.41
2023-03-04 09:07:00,,0819.5,5.00,0.00,22.4,20.9,00.0,31.2,24.1,14.6,-000.3,0009.68,0012.36,0009.29
2023-03-04 09:08:00,,0819.4,5.00,0.00,22.4,20.8,00.0,31.2,24.1,14.8,-000.2,0009.63,0012.31,0009.22
2023-03-04 09:09:00,,0819.4,5.00,0.00,22.4,20.7,00.0,31.2,24.0,14.8,-000.1,0009.53,0012.27,0009.11
2023-03-04 09:10:00,,0819.5,5.00,0.00,22.4,20.7,00.0,31.2,24.0,14.6,-000.4,0009.42,0012.23,0008.99
2023-03-04 09:11:00,,0819.5,4.99,0.00,22.4,20.6,00.0,31.2,24.0,14.5,-000.7,0009.35,0012.23,0008.90
2023-03-04 09:12:00,,0819.4,5.02,0.00,22.3,20.6,00.0,31.1,24.0,15.0,-000.8,0009.37,0012.25,0008.92
2023-03-04 09:13:00,,0819.4,5.00,0.00,22.3,20.5,00.0,31.1,24.0,15.0,-001.0,0009.48,0012.82,0009.04
2023-03-04 09:14:00,,0819.4,4.99,0.00,22.3,20.5,00.0,31.1,23.9,15.2,-000.8,0009.63,0012.97,0009.20
2023-03-04 09:15:00,,0819.4,4.99,0.00,22.3,20.4,00.0,31.1,23.9,13.5,-001.0,0009.55,0013.04,0009.09
2023-03-04 09:16:00,,0819.4,5.00,0.00,22.3,21.0,00.0,31.1,24.0,12.7,-001.2,0009.41,0013.60,0008.93
2023-03-04 09:17:00,,0819.4,4.97,0.00,22.3,22.0,00.0,31.1,24.2,12.0,-001.2,0009.21,0013.47,0008.74
2023-03-04 09:18:00,,0819.4,5.01,0.00,22.5,23.0,00.0,31.1,24.4,11.5,-001.6,0008.96,0013.21,0008.49
2023-03-04 09:19:00,,0819.4,4.98,0.00,22.5,22.7,00.0,31.1,24.4,12.0,-001.6,0008.72,0013.04,0008.24
2023-03-04 09:20:00,,0819.4,5.02,0.00,22.5,22.3,00.0,31.2,24.4,12.9,-001.6,0008.59,0012.94,0008.12
2023-03-04 09:21:00,,0819.2,4.99,0.00,22.5,21.9,00.0,31.2,24.3,13.1,-001.5,0008.52,0012.94,0008.03
2023-03-04 09:22:00,,0819.3,5.01,0.00,22.5,21.5,00.0,31.2,24.2,13.1,-001.5,0008.47,0013.02,0007.96
2023-03-04 09:23:00,,0819.3,5.00,0.00,22.5,21.2,00.0,31.2,24.1,12.2,-001.5,0008.30,0012.94,0007.77
2023-03-04 09:24:00,,0819.3,5.00,0.00,22.5,20.9,00.0,31.2,24.1,12.2,-001.4,0008.14,0012.35,0007.58
2023-03-04 09:25:00,,0819.3,5.00,0.00,22.4,20.6,00.0,31.2,23.9,11.9,-001.4,0007.92,0012.17,0007.35
2023-03-04 09:26:00,,0819.2,5.01,0.00,22.3,20.4,00.0,31.1,23.9,12.0,-001.3,0007.88,0012.18,0007.29
2023-03-04 09:27:00,,0819.3,5.01,0.00,22.3,20.3,00.0,31.1,23.8,12.5,-000.8,0007.91,0011.55,0007.34
2023-03-04 09:28:00,,0819.2,4.99,0.00,22.3,20.2,00.0,31.1,23.8,12.2,-000.8,0008.02,0011.58,0007.44
2023-03-04 09:29:00,,0819.2,5.01,0.00,22.2,20.2,00.0,31.1,23.8,11.3,-000.6,0008.08,0011.66,0007.49
2023-03-04 09:30:00,,0819.2,4.99,0.00,22.2,20.3,00.0,31.1,23.8,10.7,-000.2,0008.07,0011.65,0007.49
2023-03-04 09:31:00,,0819.3,5.01,0.00,22.2,21.0,00.0,31.0,24.0,10.1,-000.0,0007.95,0011.53,0007.36
2023-03-04 09:32:00,,0819.3,4.99,0.00,22.3,22.2,00.0,31.0,24.2,09.7,-000.1,0007.80,0011.36,0007.20
2023-03-04 09:33:00,,0819.3,5.01,0.00,22.5,23.0,00.0,31.1,24.4,09.4,0000.2,0007.64,0011.14,0007.05
2023-03-04 09:34:00,,0819.3,4.99,0.00,22.5,22.8,00.0,31.1,24.4,09.4,0000.2,0007.61,0011.61,0006.97
2023-03-04 09:35:00,,0819.3,5.01,0.00,22.5,22.3,00.0,31.1,24.4,09.4,0000.5,0007.54,0012.11,0006.92
2023-03-04 09:36:00,,0819.4,5.00,0.00,22.5,21.9,00.0,31.2,24.3,09.2,0000.3,0007.53,0012.10,0006.90
2023-03-04 09:37:00,,0819.4,5.00,0.00,22.5,21.6,00.0,31.2,24.3,10.5,0000.5,0007.53,0012.03,0006.91
2023-03-04 09:38:00,,0819.4,5.00,0.00,22.5,21.4,00.0,31.2,24.2,11.5,0000.2,0007.55,0011.94,0006.94
2023-03-04 09:39:00,,0819.2,4.99,0.00,22.5,21.2,00.0,31.2,24.2,11.7,-000.1,0007.57,0011.96,0006.95
2023-03-04 09:40:00,,0819.2,5.00,0.00,22.5,21.1,00.0,31.2,24.1,12.1,-000.2,0007.64,0011.98,0007.03
2023-03-04 09:41:00,,0819.3,5.00,0.00,22.4,20.9,00.0,31.2,24.0,11.9,-000.3,0007.73,0012.07,0007.14
2023-03-04 09:42:00,,0819.3,5.01,0.00,22.4,20.8,00.0,31.2,24.0,11.5,-000.4,0007.82,0012.17,0007.24
2023-03-04 09:43:00,,0819.3,5.00,0.00,22.4,20.7,00.0,31.2,24.0,12.3,-000.3,0007.99,0012.34,0007.40
2023-03-04 09:44:00,,0819.2,4.99,0.00,22.4,20.6,00.0,31.2,24.0,12.9,-000.5,0008.17,0012.43,0007.61
2023-03-04 09:45:00,,0819.3,5.00,0.00,22.3,20.5,00.0,31.1,24.0,12.6,-000.5,0008.29,0011.96,0007.79
2023-03-04 09:46:00,,0819.3,5.02,0.00,22.3,20.4,00.0,31.1,23.9,12.3,-000.6,0008.41,0011.49,0007.92
2023-03-04 09:47:00,,0819.3,5.01,0.00,22.3,20.5,00.0,31.1,23.8,11.7,-000.6,0008.50,0011.56,0008.02
2023-03-04 09:48:00,,0819.3,4.99,0.00,22.3,21.5,00.0,31.1,24.1,11.5,-000.5,0008.54,0011.54,0008.10
2023-03-04 09:49:00,,0819.3,5.01,0.00,22.4,22.5,00.0,31.1,24.4,10.5,-000.4,0008.49,0011.53,0008.05
2023-03-04 09:50:00,,0819.2,4.98,0.00,22.5,22.8,00.0,31.1,24.4,10.7,-000.6,0008.45,0011.55,0008.01
2023-03-04 09:51:00,,0819.2,4.98,0.00,22.5,22.3,00.0,31.2,24.3,11.3,-000.7,0008.48,0011.68,0008.00
2023-03-04 09:52:00,,0819.3,4.97,0.00,22.5,21.9,00.0,31.2,24.3,11.6,-001.1,0008.51,0011.76,0008.00
2023-03-04 09:53:00,,0819.4,5.02,0.00,22.5,21.6,00.0,31.2,24.2,12.8,-001.0,0008.63,0011.77,0008.12
2023-03-04 09:54:00,,0819.3,5.00,0.00,22.5,21.4,00.0,31.2,24.2,13.7,-001.1,0008.69,0011.68,0008.23
2023-03-04 09:55:00,,0819.3,5.01,0.00,22.5,21.2,00.0,31.2,24.1,14.0,-000.9,0008.75,0011.74,0008.29
2023-03-04 09:56:00,,0819.2,4.99,0.00,22.4,21.0,00.0,31.2,24.1,13.6,-000.7,0008.76,0011.76,0008.30
2023-03-04 09:57:00,,0819.2,5.01,0.00,22.4,20.7,00.0,31.2,24.0,12.6,-000.8,0008.76,0011.76,0008.31
2023-03-04 09:58:00,,0819.2,4.99,0.00,22.3,20.5,00.0,31.2,23.9,10.7,-000.9,0008.69,0011.95,0008.22
2023-03-04 09:59:00,,0819.3,5.02,0.00,22.4,21.3,00.0,31.1,24.1,09.5,-000.9,0008.55,0012.24,0008.06
